Regional Weather Roundup
Issued by NWS

Home | Current Version | Previous Version | Graphics & Text | Print | Product List | Glossary On
Versions: 1 2 3 4 5 6 7 8 9 10 11 12 13 14 15 16 17 18 19 20 21 22 23 24 25 26 27 28 29 30 31 32 33 34 35 36 37 38 39 40 41 42 43 44 45 46 47 48 49 50
000
ASUS43 KBIS 280431
RWRND
NORTH DAKOTA REGIONAL WEATHER ROUNDUP
NATIONAL WEATHER SERVICE EASTERN NORTH DAKOTA/GRAND FORKS ND
1100 PM CDT SAT MAY 27 2017

  NOTE: "FAIR" INDICATES FEW OR NO CLOUDS BELOW 12,000 FEET WITH NO
  SIGNIFICANT WEATHER AND/OR OBSTRUCTIONS TO VISIBILITY.

NDZ001>003-009>011-017-280500-
...NORTHWEST NORTH DAKOTA...

CITY           SKY/WX    TMP DP  RH WIND       PRES   REMARKS
WILLISTON      FAIR      54  35  48 NW9       29.89R
MINOT          FAIR      51  43  74 CALM      29.83R
MINOT AFB      FAIR      48  47  94 W5        29.82R
$$

NDZ018>021-031>035-040>046-280500-
...SOUTHWEST NORTH DAKOTA...

CITY           SKY/WX    TMP DP  RH WIND       PRES   REMARKS
BISMARCK       FAIR      54  45  71 CALM      29.87R
DICKINSON      FAIR      51  39  63 W10       29.89R
GARRISON         N/A     48  41  76 CALM      29.84S
HETTINGER      FAIR      48  36  63 NW5       29.95R
$$

NDZ004>008-012>016-024-026-027-054-280500-
...NORTHEAST NORTH DAKOTA...

CITY           SKY/WX    TMP DP  RH WIND       PRES   REMARKS
GRAND FORKS    FAIR      52  49  89 NW10      29.73R
GRAND FORKS AF MOCLDY    51  47  87 N10G18    29.74S
DEVILS LAKE    FAIR      50  45  83 NW3       29.80S
$$

NDZ022-023-025-028>030-036>039-047>053-280500-
...SOUTHEAST NORTH DAKOTA...

CITY           SKY/WX    TMP DP  RH WIND       PRES   REMARKS
JAMESTOWN      FAIR      51  46  83 W10       29.80S
FARGO          LGT RAIN  58  47  66 NW8       29.75F
WAHPETON       CLOUDY    55  45  67 NW8G21    29.80R
$$



USA.gov is the U.S. government's official web portal to all federal, state and local government web resources and services.